OBJECT Q, 68994

Orbit data source: Space-Track

You're viewing an Uncataloged Satellite

Recently launched and/or uncataloged satellites may have evolving metadata. Metadata may include but not limited to: Owner, Maufacturer, Bus, Motor, and Mission.

OBJECT Q, 68994 is a satellite in SSO that was launched on Sun, 03 May 2026 UTC launched from the Air Force Western Test Range (AFWTR). Unknown objects in Earth's orbit typically refer to objects detected orbiting the Earth but have not yet been identified or cataloged. These objects could be anything from previously untracked satellites, spent rocket stages, debris from satellite collisions, or even natural meteoroids temporarily captured by Earth's gravity.

Loading next visibility...
Identifier
68994, 2026-100Q
Orbit
SSO
Country
Flag of TBDTBD
Related business
None
Manufacturer
Unknown
Mission
Operational spacecraft
Bus & Motor
Unknown
Mass
Unknown
Launch date (UTC)
2026-05-03 (1 week ago)
Launch vehicle
Unknown
Launch site
Air Force Western Test Range (AFWTR)
Object type
Unknown
Shape & HBR
Unknown
Radar Cross Section
RCS unknown

Expand to show TLE details & history
Last TLE update: 7 hours ago

TLE from 7 hours ago
0 OBJECT Q
1 68994U 26100Q   26130.17175440  .00001616  00000-0  16359-3 0  9997
2 68994  97.7364  28.3414 0002839  83.5763 276.5779 14.92319526  1039
Epoch: 2026-05-10T04:07Z
TLE epoch observation values (Epoch: 2026-05-10T04:07:19.580Z)
Latitude
-0.00004°
Longitude
98.53116°
Altitude
593.522 km
Speed
7.563 km/s
True Right ascension
01h 53m 21s
True Declination
0° 00' 00"
Sunlit
Object was in daylight at epoch
Visualization orbit readout
Latitude
Unknown
Longitude
Unknown
Altitude
Unknown
Speed
Unknown
Apparent Right ascension
Unknown
Apparent Declination
Unknown
Sunlit
N/A
Visualization observer readout
Local Sidereal Time
18:57:46
Azimuth
Unknown
Elevation
Unknown
Doppler factor
Unknown
Orbital elements
Apogee altitude
589.7 km
Perigee altitude
585.745 km
Semi-major axis
6,965.859 km
Eccentricity
0.00028
Inclination
97.7364°
RAAN
28.3414°
Arg. of periapsis
83.5763°
True anomaly
276.54558°
Mean anomaly
276.5779°
Eccentric anomaly
276.56174°
Mean motion
3.7332 °/min
Orbital period
96.43 mins
BSTAR
0.00016359
Loading maneuver chart data...
Computing Atmospheric mass density...
Loading historical data...
Loading historical data...
Loading historical data...
Loading historical data...
Loading historical data...
Loading historical data...
Loading historical data...

Documentation

Showing up to 5 results
|